Weather History for Kirksville, MO

Change the Weather History Date:

Sunday, April 28, 2013

  Actual Average Record
Temperature  
Mean Temperature 55 °F 56 °F  
Max Temperature 68 °F 67 °F 88 °F (1970)
Min Temperature 42 °F 45 °F 32 °F (1920)
Degree Days  
Heating Degree Days 10 9  
Month to date heating degree days 484 384  
Since 1 July heating degree days 5846 5671  
Cooling Degree Days 0 0  
Month to date cooling degree days 3 0  
Year to date cooling degree days 3 0  
Growing Degree Days 6 (Base 50)    
Moisture  
Dew Point 48 °F    
Average Humidity 78    
Maximum Humidity 100    
Minimum Humidity 55    
Precipitation  
Precipitation 0.00 in 0.17 in 0.97 in (1956)
Month to date precipitation 7.18 3.47  
Year to date precipitation 15.97 8.82  
Sea Level Pressure  
Sea Level Pressure 29.95 in    
Wind  
Wind Speed 5 mph (West)    
Max Wind Speed 12 mph    
Max Gust Speed 18 mph    
Visibility 5 miles    
Events Fog    
T = Trace of Precipitation, MM = Missing Value Source: NWS Daily Summary

Daily Weather History Graph

Daily Weather History Graph

Search for Another Location

Airport:

Trip Planner

Search our weather history database for the weather conditions in past years. The results will help you decide how hot, cold, wet, or windy it might be!

Date:

Astronomy

Apr. 28, 2013 Rise Set
Actual Time 6:13 AM CDT 8:02 PM CDT
Civil Twilight 5:44 AM CDT 8:31 PM CDT
Nautical Twilight 5:09 AM CDT 9:07 PM CDT
Astronomical Twilight 4:31 AM CDT 9:45 PM CDT
Moon 11:33 PM CDT (4/28) 8:30 AM CDT (4/28)
Length of Visible Light 14h 47m
Length of Day
13h 48m
Waning Gibbous, 88% of the Moon is Illuminated
Apr 28
Waning Gibbous
May 2
Last Quarter
May 9
New
May 17
First Quarter
May 24
Full

Hourly Weather History & Observations

Time (CDT) Temp. Windchill Dew Point Humidity Pressure Visibility Wind Dir Wind Speed Gust Speed Precip Events Conditions
12:04 AM 48.2 °F - 48.2 °F 100% 30.00 in 1.0 mi Calm Calm - N/A   Overcast
12:15 AM 48.2 °F - 48.2 °F 100% 30.00 in 2.5 mi WNW 3.5 mph - N/A   Overcast
12:26 AM 48.2 °F - 48.2 °F 100% 30.00 in 4.0 mi WNW 3.5 mph - N/A   Overcast
12:55 AM 48.9 °F - 48.0 °F 97% 30.01 in 4.0 mi WNW 4.6 mph - N/A   Overcast
1:50 AM 48.2 °F - 46.4 °F 93% 29.97 in 2.5 mi Calm Calm - N/A   Overcast
1:55 AM 46.9 °F - 46.9 °F 100% 29.99 in 0.8 mi Calm Calm - N/A   Overcast
1:58 AM 46.4 °F - 46.4 °F 100% 29.97 in 0.5 mi Calm Calm - N/A Fog Fog
2:20 AM 44.6 °F - 44.6 °F 100% 29.96 in 0.2 mi Calm Calm - N/A Fog Fog
2:55 AM 43.0 °F 41.3 °F 43.0 °F 100% 29.98 in 0.2 mi WNW 3.5 mph - N/A Fog Fog
3:15 AM 44.6 °F 42.2 °F 44.6 °F 100% 29.96 in 0.8 mi WNW 4.6 mph - N/A   Overcast
3:24 AM 44.6 °F 43.1 °F 44.6 °F 100% 29.96 in 1.2 mi WNW 3.5 mph - N/A   Overcast
3:35 AM 44.6 °F 41.4 °F 44.6 °F 100% 29.96 in 0.5 mi WNW 5.8 mph - N/A Fog Fog
3:42 AM 44.6 °F 42.2 °F 44.6 °F 100% 29.96 in 0.2 mi WNW 4.6 mph - N/A Fog Fog
3:55 AM 45.0 °F 42.6 °F 45.0 °F 100% 29.99 in 0.2 mi WNW 4.6 mph - N/A Fog Fog
4:55 AM 44.1 °F - 44.1 °F 100% 29.98 in 0.2 mi Calm Calm - N/A Fog Fog
5:41 AM 44.6 °F 43.1 °F 44.6 °F 100% 29.96 in 1.0 mi West 3.5 mph - N/A   Overcast
5:55 AM 44.1 °F - 44.1 °F 100% 29.99 in 2.0 mi Calm Calm - N/A   Overcast
6:10 AM 44.6 °F - 44.6 °F 100% 29.96 in 3.0 mi Calm Calm - N/A   Overcast
6:35 AM 44.6 °F 41.4 °F 44.6 °F 100% 29.97 in 2.5 mi WNW 5.8 mph - N/A   Overcast
6:38 AM 44.6 °F 40.7 °F 44.6 °F 100% 29.97 in 0.8 mi WNW 6.9 mph - N/A   Overcast
6:45 AM 44.6 °F 40.7 °F 44.6 °F 100% 29.97 in 0.2 mi WNW 6.9 mph - N/A Fog Fog
6:55 AM 45.0 °F 41.8 °F 45.0 °F 100% 29.99 in 0.2 mi WNW 5.8 mph - N/A Fog Fog
7:13 AM 46.4 °F 43.5 °F 46.4 °F 100% 29.97 in 1.0 mi WNW 5.8 mph - N/A   Overcast
7:27 AM 46.4 °F 44.3 °F 46.4 °F 100% 29.98 in 2.5 mi WNW 4.6 mph - N/A   Overcast
7:39 AM 46.4 °F 44.3 °F 46.4 °F 100% 29.98 in 3.0 mi WNW 4.6 mph - N/A   Overcast
7:55 AM 46.4 °F 43.5 °F 46.4 °F 100% 29.98 in 5.0 mi WNW 5.8 mph - N/A   Overcast
8:55 AM 48.9 °F - 48.0 °F 97% 30.00 in 9.0 mi West 3.5 mph - N/A   Overcast
9:55 AM 53.1 °F - 50.0 °F 89% 29.99 in 10.0 mi Calm Calm - N/A   Overcast
10:17 AM 55.4 °F - 50.0 °F 82% 29.97 in 10.0 mi Calm Calm - N/A   Scattered Clouds
10:45 AM 55.4 °F - 50.0 °F 82% 29.97 in 10.0 mi West 4.6 mph - N/A   Mostly Cloudy
10:55 AM 57.0 °F - 50.0 °F 77% 29.99 in 10.0 mi Calm Calm - N/A   Scattered Clouds
11:07 AM 57.2 °F - 51.8 °F 82% 29.97 in 10.0 mi West 3.5 mph - N/A   Mostly Cloudy
11:55 AM 59.0 °F - 48.9 °F 69% 29.97 in 10.0 mi Calm Calm - N/A   Partly Cloudy
12:55 PM 62.1 °F - 51.1 °F 67% 29.96 in 10.0 mi West 5.8 mph - N/A   Mostly Cloudy
1:36 PM 64.4 °F - 51.8 °F 64% 29.93 in 10.0 mi South 8.1 mph - N/A   Partly Cloudy
1:55 PM 64.0 °F - 52.0 °F 65% 29.93 in 10.0 mi South 6.9 mph - N/A   Clear
2:55 PM 66.9 °F - 52.0 °F 59% 29.92 in 10.0 mi South 6.9 mph - N/A   Partly Cloudy
3:55 PM 66.9 °F - 53.1 °F 61% 29.89 in 10.0 mi South 6.9 mph 16.1 mph N/A   Partly Cloudy
4:55 PM 68.0 °F - 52.0 °F 56% 29.87 in 10.0 mi SSW 8.1 mph - N/A   Clear
5:55 PM 68.0 °F - 52.0 °F 56% 29.87 in 10.0 mi South 10.4 mph - N/A   Clear
6:55 PM 64.0 °F - 53.1 °F 67% 29.86 in 10.0 mi South 10.4 mph - N/A   Clear
7:55 PM 57.9 °F - 52.0 °F 81% 29.86 in 10.0 mi South 8.1 mph - N/A   Clear
8:55 PM 54.0 °F - 50.0 °F 86% 29.87 in 10.0 mi South 6.9 mph - N/A   Clear
9:55 PM 53.1 °F - 50.0 °F 89% 29.89 in 10.0 mi South 8.1 mph - N/A   Clear
10:55 PM 52.0 °F - 48.9 °F 89% 29.88 in 10.0 mi SSE 5.8 mph - N/A   Clear
11:55 PM 52.0 °F - 50.0 °F 93% 29.87 in 9.0 mi SSE 9.2 mph - N/A   Clear